QPF
0.06 0.03 0.02 0.03 0.04 0.04 0.03 0.03 0.03 0.02 0.02 0.01 0.01 0.01 0.01 0.00 0.01 0.01 0.01 0.01 0.01 0.01 0.01 0.02 0.02 0.03 0.03 0.02 0.02 0.02 0.01 0.02 0.03 0.04 0.04 0.04 0.05 0.05 0.05 0.04 0.04 0.04 0.05
0.09 0.06 0.03 0.02 0.03 0.04 0.04 0.04 0.04 0.04 0.02 0.01 0.01 0.01 0.01 0.01 0.01 0.01 0.01 0.01 0.01 0.01 0.01 0.02 0.02 0.03 0.03 0.03 0.03 0.03 0.03 0.02 0.02 0.02 0.02 0.02 0.02 0.02 0.02 0.03 0.03 0.04 0.05
0.11 0.12 0.09 0.04 0.03 0.03 0.04 0.04 0.04 0.04 0.03 0.01 0.01 0.01 0.00 0.01 0.01 0.01 0.01 0.01 0.01 0.01 0.01 0.01 0.02 0.03 0.03 0.03 0.04 0.04 0.04 0.04 0.03 0.02 0.02 0.02 0.01 0.01 0.01 0.02 0.02 0.03 0.04
0.08 0.11 0.12 0.09 0.05 0.03 0.03 0.04 0.04 0.04 0.04 0.02 0.01 0.01 0.00 0.00 0.01 0.01 0.01 0.01 0.01 0.01 0.01 0.01 0.01 0.02 0.03 0.03 0.04 0.04 0.04 0.05 0.04 0.03 0.03 0.02 0.02 0.01 0.01 0.01 0.01 0.01 0.02
0.06 0.08 0.10 0.12 0.10 0.06 0.04 0.04 0.04 0.03 0.04 0.03 0.02 0.01 0.01 0.00 0.00 0.00 0.00 0.01 0.01 0.01 0.01 0.01 0.01 0.02 0.02 0.03 0.04 0.04 0.04 0.05 0.05 0.05 0.04 0.03 0.02 0.01 0.01 0.01 0.01 0.01 0.01
0.06 0.07 0.09 0.11 0.11 0.10 0.07 0.05 0.05 0.04 0.04 0.05 0.03 0.01 0.01 0.01 0.00 0.00 0.00 0.00 0.01 0.01 0.01 0.01 0.01 0.01 0.02 0.02 0.03 0.04 0.04 0.04 0.05 0.05 0.04 0.03 0.03 0.02 0.02 0.01 0.01 0.01 0.01
0.06 0.06 0.08 0.11 0.12 0.11 0.09 0.07 0.06 0.06 0.05 0.05 0.04 0.03 0.02 0.01 0.00 0.00 0.00 0.00 0.00 0.00 0.01 0.01 0.01 0.01 0.01 0.02 0.02 0.03 0.04 0.05 0.05 0.05 0.05 0.04 0.04 0.04 0.03 0.02 0.02 0.01 0.01
0.04 0.04 0.04 0.06 0.12 0.14 0.11 0.09 0.07 0.06 0.05 0.04 0.05 0.04 0.03 0.02 0.01 0.01 0.00 0.00 0.00 0.00 0.01 0.01 0.01 0.02 0.02 0.02 0.02 0.02 0.03 0.04 0.06 0.06 0.05 0.04 0.04 0.04 0.04 0.03 0.02 0.02 0.02
0.03 0.03 0.03 0.04 0.06 0.14 0.16 0.12 0.10 0.07 0.06 0.05 0.04 0.05 0.04 0.03 0.02 0.01 0.01 0.01 0.00 0.00 0.01 0.01 0.01 0.02 0.02 0.03 0.02 0.02 0.02 0.02 0.04 0.06 0.06 0.05 0.04 0.05 0.04 0.04 0.04 0.03 0.03
0.03 0.03 0.03 0.03 0.05 0.07 0.14 0.18 0.15 0.12 0.09 0.07 0.07 0.05 0.03 0.02 0.02 0.02 0.01 0.01 0.01 0.01 0.01 0.01 0.01 0.02 0.02 0.02 0.02 0.02 0.02 0.02 0.03 0.05 0.06 0.05 0.04 0.04 0.04 0.04 0.04 0.04 0.04
0.03 0.04 0.04 0.05 0.05 0.06 0.08 0.13 0.18 0.17 0.14 0.09 0.08 0.07 0.05 0.03 0.03 0.04 0.03 0.02 0.02 0.01 0.02 0.02 0.02 0.02 0.02 0.02 0.02 0.02 0.02 0.02 0.03 0.04 0.05 0.05 0.04 0.04 0.03 0.04 0.05 0.04 0.04
0.03 0.04 0.04 0.04 0.06 0.07 0.08 0.11 0.15 0.17 0.16 0.13 0.09 0.08 0.07 0.06 0.05 0.05 0.04 0.03 0.02 0.02 0.02 0.02 0.02 0.02 0.03 0.03 0.02 0.03 0.02 0.02 0.03 0.03 0.04 0.04 0.05 0.04 0.03 0.04 0.06 0.05 0.06
0.05 0.04 0.04 0.04 0.05 0.07 0.09 0.10 0.12 0.15 0.17 0.16 0.14 0.11 0.10 0.10 0.09 0.08 0.06 0.03 0.02 0.02 0.03 0.03 0.03 0.03 0.03 0.04 0.04 0.03 0.02 0.02 0.03 0.03 0.03 0.03 0.03 0.04 0.04 0.06 0.07 0.05 0.06
0.05 0.05 0.05 0.05 0.05 0.07 0.08 0.11 0.12 0.14 0.16 0.17 0.16 0.15 0.15 0.14 0.12 0.11 0.08 0.07 0.05 0.03 0.03 0.04 0.04 0.05 0.05 0.04 0.04 0.05 0.03 0.03 0.03 0.03 0.03 0.03 0.02 0.03 0.05 0.07 0.07 0.06 0.07
0.05 0.05 0.06 0.06 0.06 0.07 0.08 0.09 0.11 0.12 0.13 0.15 0.16 0.15 0.14 0.12 0.12 0.12 0.11 0.10 0.09 0.08 0.06 0.06 0.06 0.05 0.04 0.04 0.04 0.03 0.02 0.03 0.03 0.04 0.03 0.03 0.03 0.04 0.06 0.09 0.10 0.08 0.08
0.04 0.05 0.05 0.06 0.06 0.06 0.08 0.09 0.09 0.10 0.12 0.13 0.14 0.15 0.14 0.12 0.11 0.11 0.12 0.11 0.10 0.10 0.09 0.07 0.07 0.06 0.05 0.03 0.03 0.02 0.02 0.02 0.04 0.04 0.04 0.05 0.06 0.07 0.08 0.10 0.11 0.10 0.07
0.03 0.03 0.03 0.04 0.05 0.06 0.07 0.08 0.09 0.11 0.12 0.12 0.11 0.11 0.11 0.11 0.11 0.10 0.10 0.11 0.10 0.09 0.09 0.07 0.05 0.04 0.04 0.04 0.04 0.04 0.04 0.05 0.06 0.05 0.06 0.08 0.09 0.10 0.10 0.12 0.13 0.11 0.07
0.03 0.04 0.03 0.03 0.03 0.04 0.06 0.08 0.09 0.10 0.10 0.10 0.09 0.09 0.08 0.09 0.09 0.10 0.09 0.10 0.10 0.09 0.08 0.07 0.05 0.04 0.04 0.05 0.05 0.07 0.09 0.09 0.09 0.08 0.08 0.09 0.11 0.11 0.11 0.12 0.14 0.12 0.07
0.03 0.04 0.04 0.03 0.03 0.04 0.05 0.06 0.07 0.08 0.08 0.08 0.08 0.08 0.08 0.08 0.08 0.09 0.09 0.09 0.09 0.09 0.08 0.07 0.06 0.05 0.05 0.04 0.04 0.06 0.08 0.09 0.10 0.09 0.09 0.10 0.10 0.09 0.09 0.10 0.11 0.10 0.06
0.04 0.05 0.05 0.04 0.04 0.04 0.05 0.05 0.05 0.05 0.06 0.06 0.06 0.06 0.06 0.07 0.07 0.07 0.08 0.08 0.08 0.09 0.08 0.09 0.08 0.06 0.05 0.04 0.05 0.07 0.07 0.08 0.08 0.08 0.09 0.09 0.08 0.07 0.07 0.06 0.07 0.08 0.06
0.04 0.05 0.05 0.05 0.04 0.04 0.05 0.04 0.05 0.05 0.05 0.05 0.05 0.04 0.04 0.05 0.06 0.06 0.07 0.08 0.08 0.07 0.07 0.07 0.07 0.06 0.05 0.06 0.08 0.09 0.08 0.07 0.07 0.07 0.07 0.07 0.06 0.05 0.05 0.05 0.05 0.06 0.05
0.05 0.05 0.06 0.06 0.05 0.05 0.06 0.05 0.05 0.04 0.04 0.05 0.05 0.04 0.04 0.04 0.05 0.05 0.05 0.06 0.06 0.06 0.06 0.06 0.06 0.07 0.07 0.08 0.09 0.09 0.07 0.07 0.08 0.07 0.06 0.05 0.04 0.05 0.05 0.04 0.04 0.04 0.04
0.06 0.06 0.06 0.07 0.06 0.07 0.07 0.06 0.06 0.04 0.03 0.04 0.04 0.03 0.03 0.03 0.03 0.03 0.04 0.04 0.04 0.04 0.05 0.05 0.05 0.06 0.08 0.09 0.10 0.08 0.07 0.07 0.08 0.07 0.04 0.04 0.04 0.04 0.04 0.04 0.04 0.04 0.04
0.07 0.08 0.09 0.08 0.07 0.07 0.07 0.07 0.06 0.04 0.03 0.02 0.03 0.03 0.02 0.02 0.02 0.02 0.03 0.04 0.03 0.03 0.03 0.03 0.03 0.04 0.05 0.07 0.07 0.06 0.06 0.05 0.06 0.05 0.04 0.04 0.04 0.04 0.03 0.03 0.03 0.03 0.04
0.09 0.09 0.10 0.08 0.07 0.06 0.08 0.08 0.07 0.04 0.03 0.02 0.03 0.03 0.03 0.02 0.02 0.03 0.04 0.04 0.03 0.02 0.02 0.02 0.03 0.03 0.04 0.04 0.04 0.04 0.04 0.04 0.05 0.05 0.03 0.03 0.03 0.03 0.03 0.03 0.03 0.03 0.03
0.08 0.09 0.09 0.08 0.07 0.06 0.08 0.07 0.07 0.04 0.03 0.03 0.03 0.03 0.03 0.03 0.03 0.03 0.04 0.04 0.03 0.03 0.03 0.03 0.03 0.03 0.03 0.03 0.03 0.02 0.03 0.03 0.04 0.03 0.02 0.02 0.02 0.02 0.03 0.03 0.02 0.02 0.02
MSLP
1014.68 1014.35 1014.05 1013.81 1013.66 1013.61 1013.71 1013.95 1014.32 1014.79 1015.31 1015.83 1016.31 1016.70 1016.99 1017.20 1017.34 1017.44 1017.54 1017.66 1017.82 1018.00 1018.22 1018.44 1018.66 1018.87 1019.08 1019.27 1019.47 1019.68 1019.91 1020.17 1020.44 1020.73 1021.02 1021.29 1021.52 1021.71 1021.86 1021.94 1021.99 1021.99 1021.97
1014.96 1014.54 1014.15 1013.82 1013.58 1013.48 1013.52 1013.73 1014.08 1014.56 1015.09 1015.64 1016.14 1016.55 1016.87 1017.08 1017.23 1017.32 1017.40 1017.51 1017.65 1017.83 1018.05 1018.29 1018.54 1018.78 1019.00 1019.22 1019.42 1019.63 1019.86 1020.11 1020.38 1020.67 1020.96 1021.24 1021.50 1021.71 1021.87 1021.97 1022.02 1022.03 1022.01
1015.18 1014.70 1014.24 1013.84 1013.53 1013.35 1013.33 1013.48 1013.80 1014.25 1014.79 1015.36 1015.89 1016.35 1016.71 1016.96 1017.12 1017.22 1017.30 1017.38 1017.49 1017.65 1017.85 1018.09 1018.35 1018.61 1018.86 1019.10 1019.32 1019.55 1019.77 1020.01 1020.26 1020.53 1020.81 1021.09 1021.34 1021.56 1021.74 1021.86 1021.93 1021.96 1021.95
1015.36 1014.84 1014.34 1013.88 1013.50 1013.24 1013.14 1013.22 1013.47 1013.88 1014.39 1014.97 1015.54 1016.06 1016.48 1016.80 1017.01 1017.13 1017.21 1017.27 1017.35 1017.47 1017.65 1017.86 1018.12 1018.39 1018.67 1018.93 1019.19 1019.42 1019.65 1019.87 1020.11 1020.35 1020.60 1020.85 1021.09 1021.31 1021.49 1021.63 1021.72 1021.77 1021.78
1015.49 1014.98 1014.46 1013.96 1013.52 1013.18 1012.97 1012.94 1013.08 1013.41 1013.88 1014.44 1015.04 1015.63 1016.13 1016.54 1016.83 1017.02 1017.12 1017.19 1017.24 1017.32 1017.45 1017.64 1017.88 1018.15 1018.45 1018.74 1019.02 1019.28 1019.52 1019.73 1019.94 1020.15 1020.36 1020.57 1020.79 1020.99 1021.17 1021.31 1021.42 1021.49 1021.53
1015.58 1015.09 1014.58 1014.07 1013.57 1013.14 1012.81 1012.64 1012.65 1012.85 1013.23 1013.76 1014.38 1015.03 1015.63 1016.16 1016.56 1016.84 1017.01 1017.10 1017.15 1017.20 1017.29 1017.44 1017.65 1017.92 1018.22 1018.54 1018.85 1019.14 1019.39 1019.60 1019.79 1019.96 1020.12 1020.29 1020.47 1020.64 1020.81 1020.96 1021.08 1021.17 1021.22
1015.58 1015.15 1014.68 1014.16 1013.62 1013.10 1012.64 1012.31 1012.15 1012.19 1012.47 1012.93 1013.55 1014.25 1014.96 1015.61 1016.16 1016.56 1016.83 1016.98 1017.05 1017.09 1017.15 1017.26 1017.45 1017.70 1018.01 1018.34 1018.67 1018.98 1019.25 1019.46 1019.63 1019.78 1019.91 1020.04 1020.18 1020.33 1020.48 1020.62 1020.74 1020.83 1020.89
1015.48 1015.13 1014.70 1014.19 1013.62 1013.01 1012.42 1011.92 1011.58 1011.45 1011.58 1011.96 1012.55 1013.29 1014.10 1014.89 1015.59 1016.14 1016.54 1016.78 1016.90 1016.97 1017.02 1017.10 1017.26 1017.49 1017.79 1018.13 1018.48 1018.80 1019.08 1019.31 1019.48 1019.61 1019.72 1019.82 1019.93 1020.06 1020.19 1020.32 1020.44 1020.53 1020.59
1015.25 1014.96 1014.59 1014.11 1013.51 1012.83 1012.13 1011.47 1010.94 1010.64 1010.62 1010.88 1011.43 1012.18 1013.06 1013.98 1014.83 1015.55 1016.09 1016.45 1016.67 1016.78 1016.84 1016.92 1017.06 1017.27 1017.56 1017.89 1018.24 1018.58 1018.87 1019.11 1019.29 1019.42 1019.52 1019.62 1019.72 1019.83 1019.96 1020.08 1020.20 1020.28 1020.34
1014.85 1014.64 1014.32 1013.87 1013.27 1012.54 1011.73 1010.94 1010.25 1009.78 1009.60 1009.74 1010.21 1010.95 1011.88 1012.89 1013.88 1014.75 1015.45 1015.95 1016.28 1016.47 1016.58 1016.68 1016.81 1017.01 1017.28 1017.60 1017.95 1018.29 1018.59 1018.85 1019.04 1019.19 1019.31 1019.41 1019.52 1019.64 1019.76 1019.89 1020.00 1020.09 1020.13
1014.31 1014.14 1013.87 1013.45 1012.85 1012.10 1011.23 1010.34 1009.53 1008.91 1008.57 1008.59 1008.96 1009.65 1010.59 1011.66 1012.75 1013.75 1014.60 1015.25 1015.71 1016.00 1016.19 1016.33 1016.48 1016.68 1016.94 1017.25 1017.59 1017.92 1018.24 1018.51 1018.72 1018.90 1019.04 1019.17 1019.30 1019.44 1019.58 1019.71 1019.83 1019.91 1019.95
1013.63 1013.48 1013.24 1012.85 1012.28 1011.53 1010.64 1009.69 1008.79 1008.05 1007.59 1007.48 1007.74 1008.35 1009.24 1010.32 1011.47 1012.58 1013.55 1014.34 1014.94 1015.36 1015.65 1015.86 1016.06 1016.28 1016.54 1016.84 1017.17 1017.51 1017.82 1018.10 1018.34 1018.54 1018.72 1018.88 1019.05 1019.21 1019.37 1019.52 1019.64 1019.72 1019.75
1012.85 1012.70 1012.48 1012.11 1011.58 1010.85 1009.98 1009.01 1008.06 1007.25 1006.68 1006.45 1006.59 1007.09 1007.91 1008.96 1010.12 1011.28 1012.35 1013.26 1014.00 1014.55 1014.97 1015.28 1015.55 1015.82 1016.10 1016.41 1016.74 1017.07 1017.39 1017.67 1017.93 1018.16 1018.37 1018.56 1018.75 1018.94 1019.12 1019.28 1019.41 1019.49 1019.52
1012.01 1011.84 1011.61 1011.27 1010.78 1010.10 1009.27 1008.33 1007.38 1006.52 1005.88 1005.54 1005.55 1005.93 1006.65 1007.61 1008.74 1009.92 1011.05 1012.07 1012.93 1013.63 1014.18 1014.62 1014.99 1015.33 1015.66 1015.99 1016.33 1016.66 1016.98 1017.27 1017.54 1017.78 1018.01 1018.22 1018.43 1018.63 1018.82 1018.98 1019.11 1019.19 1019.22
1011.14 1010.93 1010.69 1010.37 1009.92 1009.31 1008.54 1007.66 1006.74 1005.88 1005.19 1004.76 1004.66 1004.91 1005.50 1006.36 1007.42 1008.58 1009.75 1010.84 1011.81 1012.65 1013.34 1013.92 1014.41 1014.84 1015.23 1015.61 1015.97 1016.32 1016.64 1016.94 1017.21 1017.45 1017.68 1017.90 1018.11 1018.30 1018.48 1018.63 1018.75 1018.82 1018.85
1010.26 1010.00 1009.75 1009.44 1009.04 1008.50 1007.82 1007.01 1006.14 1005.30 1004.59 1004.11 1003.91 1004.03 1004.49 1005.24 1006.21 1007.33 1008.50 1009.64 1010.71 1011.67 1012.50 1013.22 1013.83 1014.37 1014.86 1015.30 1015.70 1016.07 1016.40 1016.70 1016.97 1017.21 1017.42 1017.62 1017.80 1017.97 1018.12 1018.25 1018.34 1018.40 1018.42
1009.38 1009.08 1008.81 1008.52 1008.16 1007.68 1007.08 1006.35 1005.55 1004.76 1004.06 1003.53 1003.26 1003.29 1003.64 1004.28 1005.16 1006.22 1007.37 1008.54 1009.68 1010.74 1011.69 1012.54 1013.28 1013.94 1014.52 1015.03 1015.49 1015.90 1016.25 1016.56 1016.83 1017.05 1017.24 1017.41 1017.55 1017.67 1017.78 1017.86 1017.91 1017.95 1017.95
1008.52 1008.19 1007.90 1007.62 1007.28 1006.85 1006.31 1005.66 1004.93 1004.19 1003.51 1002.98 1002.67 1002.64 1002.90 1003.45 1004.25 1005.25 1006.38 1007.57 1008.75 1009.88 1010.93 1011.89 1012.75 1013.51 1014.18 1014.78 1015.31 1015.76 1016.15 1016.48 1016.75 1016.96 1017.13 1017.25 1017.34 1017.41 1017.46 1017.48 1017.50 1017.50 1017.49
1007.68 1007.32 1007.02 1006.73 1006.40 1006.00 1005.50 1004.90 1004.23 1003.54 1002.91 1002.40 1002.08 1002.02 1002.23 1002.73 1003.47 1004.43 1005.53 1006.71 1007.91 1009.09 1010.21 1011.25 1012.19 1013.04 1013.81 1014.49 1015.08 1015.60 1016.04 1016.40 1016.68 1016.89 1017.04 1017.14 1017.18 1017.19 1017.18 1017.15 1017.12 1017.08 1017.05
1006.88 1006.50 1006.18 1005.86 1005.51 1005.11 1004.62 1004.05 1003.42 1002.77 1002.19 1001.72 1001.43 1001.38 1001.59 1002.07 1002.79 1003.72 1004.79 1005.96 1007.17 1008.36 1009.51 1010.59 1011.59 1012.51 1013.35 1014.10 1014.77 1015.35 1015.86 1016.27 1016.58 1016.81 1016.96 1017.03 1017.05 1017.01 1016.95 1016.87 1016.79 1016.72 1016.67
1006.12 1005.72 1005.35 1004.99 1004.60 1004.16 1003.65 1003.07 1002.47 1001.86 1001.33 1000.92 1000.69 1000.69 1000.94 1001.44 1002.17 1003.09 1004.15 1005.30 1006.49 1007.68 1008.82 1009.92 1010.95 1011.91 1012.79 1013.60 1014.34 1015.00 1015.57 1016.05 1016.42 1016.69 1016.85 1016.93 1016.93 1016.86 1016.76 1016.64 1016.53 1016.43 1016.35
1005.39 1004.96 1004.55 1004.12 1003.66 1003.15 1002.59 1001.99 1001.39 1000.82 1000.34 1000.01 999.87 999.95 1000.28 1000.83 1001.60 1002.54 1003.60 1004.73 1005.90 1007.05 1008.17 1009.25 1010.27 1011.24 1012.16 1013.02 1013.82 1014.55 1015.20 1015.75 1016.19 1016.51 1016.71 1016.81 1016.82 1016.75 1016.63 1016.48 1016.34 1016.20 1016.10
1004.67 1004.20 1003.72 1003.22 1002.67 1002.08 1001.46 1000.83 1000.22 999.68 999.27 999.03 999.00 999.20 999.63 1000.28 1001.11 1002.09 1003.16 1004.28 1005.40 1006.51 1007.59 1008.63 1009.63 1010.59 1011.51 1012.41 1013.26 1014.05 1014.77 1015.40 1015.91 1016.30 1016.56 1016.70 1016.73 1016.67 1016.55 1016.39 1016.22 1016.06 1015.92
1003.91 1003.40 1002.85 1002.26 1001.63 1000.96 1000.28 999.62 999.01 998.53 998.20 998.07 998.17 998.51 999.07 999.83 1000.75 1001.77 1002.87 1003.97 1005.07 1006.13 1007.15 1008.14 1009.09 1010.03 1010.95 1011.86 1012.74 1013.59 1014.37 1015.07 1015.65 1016.10 1016.42 1016.61 1016.67 1016.63 1016.52 1016.36 1016.17 1015.99 1015.81
1003.07 1002.51 1001.90 1001.24 1000.54 999.81 999.09 998.43 997.86 997.44 997.22 997.22 997.47 997.96 998.66 999.54 1000.55 1001.64 1002.76 1003.87 1004.94 1005.95 1006.92 1007.85 1008.76 1009.66 1010.56 1011.47 1012.37 1013.24 1014.07 1014.81 1015.45 1015.96 1016.33 1016.56 1016.66 1016.64 1016.55 1016.38 1016.19 1015.98 1015.76
1002.12 1001.51 1000.85 1000.15 999.41 998.66 997.95 997.31 996.81 996.50 996.41 996.56 996.97 997.61 998.46 999.47 1000.57 1001.73 1002.87 1003.98 1005.03 1006.01 1006.93 1007.81 1008.67 1009.53 1010.40 1011.30 1012.19 1013.08 1013.92 1014.69 1015.36 1015.90 1016.30 1016.56 1016.69 1016.70 1016.61 1016.45 1016.24 1016.01 1015.75
Thickness
5641 5641 5641 5640 5640 5639 5639 5638 5638 5637 5636 5635 5635 5634 5633 5633 5633 5633 5634 5634 5634 5635 5635 5636 5637 5637 5636 5636 5635 5635 5634 5633 5632 5632 5631 5631 5630 5630 5629 5628 5628 5627 5626
5633 5632 5632 5632 5632 5632 5631 5630 5629 5628 5627 5627 5626 5626 5625 5625 5625 5625 5625 5626 5626 5626 5627 5627 5628 5629 5628 5628 5627 5627 5626 5625 5625 5624 5623 5623 5623 5622 5621 5620 5620 5619 5619
5624 5624 5624 5624 5624 5624 5623 5621 5620 5620 5619 5618 5618 5617 5617 5617 5617 5617 5617 5617 5617 5617 5617 5618 5618 5619 5619 5619 5618 5618 5617 5617 5616 5616 5615 5614 5614 5614 5613 5612 5611 5611 5611
5615 5616 5615 5615 5615 5615 5614 5613 5612 5611 5610 5609 5609 5608 5609 5609 5609 5609 5608 5608 5607 5607 5607 5607 5607 5608 5608 5609 5609 5609 5608 5608 5607 5607 5606 5605 5605 5605 5605 5604 5603 5603 5602
5606 5606 5606 5606 5606 5606 5605 5604 5603 5602 5601 5600 5600 5600 5599 5599 5599 5599 5599 5598 5597 5597 5596 5596 5596 5596 5597 5597 5597 5598 5598 5598 5598 5598 5597 5597 5596 5597 5596 5596 5595 5595 5595
5597 5597 5597 5596 5597 5596 5596 5595 5594 5593 5592 5590 5590 5589 5589 5589 5589 5589 5589 5588 5587 5586 5585 5585 5584 5584 5584 5584 5585 5586 5587 5588 5589 5589 5588 5588 5588 5588 5588 5587 5586 5586 5586
5588 5587 5587 5587 5587 5587 5586 5585 5584 5583 5581 5580 5577 5577 5579 5579 5579 5579 5578 5576 5575 5574 5573 5573 5572 5572 5572 5572 5573 5574 5575 5577 5579 5579 5579 5579 5580 5579 5579 5578 5577 5577 5578
5577 5578 5578 5578 5577 5577 5576 5575 5574 5573 5571 5569 5566 5564 5566 5567 5567 5568 5565 5564 5564 5563 5561 5560 5560 5560 5560 5560 5561 5562 5564 5566 5568 5569 5570 5570 5571 5571 5570 5570 5569 5569 5569
5567 5568 5568 5568 5567 5566 5566 5565 5564 5563 5561 5558 5556 5554 5552 5555 5555 5556 5554 5553 5552 5551 5550 5549 5548 5548 5548 5548 5549 5550 5552 5554 5556 5558 5560 5561 5561 5561 5561 5561 5560 5560 5560
5557 5557 5558 5558 5557 5556 5555 5554 5553 5552 5551 5549 5546 5544 5543 5542 5539 5542 5544 5542 5540 5539 5539 5538 5537 5536 5536 5537 5538 5540 5541 5543 5545 5547 5549 5550 5551 5552 5552 5552 5551 5551 5551
5546 5547 5547 5547 5546 5546 5545 5544 5543 5542 5542 5541 5538 5535 5532 5530 5529 5528 5531 5531 5529 5529 5528 5527 5526 5525 5526 5526 5527 5529 5530 5532 5534 5536 5538 5539 5540 5542 5542 5542 5542 5542 5541
5535 5535 5535 5535 5535 5535 5534 5534 5533 5532 5531 5531 5529 5527 5524 5522 5520 5519 5519 5519 5519 5519 5517 5516 5516 5515 5515 5516 5517 5519 5520 5522 5523 5525 5527 5528 5529 5530 5532 5532 5532 5532 5532
5523 5524 5523 5523 5523 5523 5523 5522 5522 5521 5521 5520 5519 5518 5516 5515 5513 5510 5509 5508 5507 5508 5507 5506 5506 5506 5506 5506 5507 5508 5510 5511 5513 5514 5516 5518 5518 5519 5521 5522 5522 5522 5522
5511 5512 5512 5512 5511 5511 5511 5511 5510 5510 5510 5510 5509 5507 5506 5506 5503 5501 5499 5496 5496 5498 5498 5498 5496 5496 5496 5497 5497 5498 5500 5501 5503 5504 5507 5508 5509 5510 5511 5512 5512 5512 5512
5499 5500 5500 5500 5500 5500 5499 5499 5499 5498 5498 5498 5498 5496 5495 5495 5493 5492 5490 5488 5488 5490 5491 5490 5487 5487 5486 5486 5487 5488 5490 5492 5493 5495 5497 5499 5500 5500 5501 5502 5502 5503 5502
5487 5488 5489 5489 5489 5488 5488 5488 5488 5488 5487 5487 5487 5486 5484 5484 5483 5482 5481 5480 5479 5479 5480 5481 5478 5478 5478 5478 5478 5479 5480 5482 5484 5486 5489 5491 5491 5492 5492 5492 5493 5493 5493
5476 5477 5477 5477 5477 5477 5477 5477 5478 5478 5477 5477 5477 5476 5475 5475 5474 5472 5471 5471 5470 5469 5469 5470 5469 5469 5469 5470 5471 5471 5473 5475 5476 5478 5481 5482 5483 5483 5483 5482 5483 5484 5483
5465 5465 5465 5466 5466 5467 5467 5467 5468 5468 5468 5468 5468 5467 5466 5466 5465 5463 5462 5462 5462 5461 5460 5460 5460 5459 5460 5461 5462 5463 5465 5466 5467 5470 5471 5473 5473 5473 5474 5473 5474 5474 5475
5454 5454 5454 5455 5456 5456 5457 5457 5458 5458 5458 5458 5458 5458 5457 5457 5456 5455 5454 5454 5454 5453 5453 5452 5452 5451 5451 5452 5453 5455 5456 5457 5458 5459 5461 5462 5463 5464 5465 5463 5464 5465 5465
5444 5444 5443 5444 5445 5446 5447 5448 5448 5449 5449 5449 5449 5449 5448 5448 5448 5447 5447 5447 5446 5445 5444 5444 5444 5444 5444 5445 5445 5446 5448 5448 5448 5449 5451 5451 5452 5453 5453 5453 5454 5455 5455
5435 5434 5434 5435 5435 5436 5438 5439 5439 5440 5440 5439 5440 5439 5439 5441 5441 5441 5441 5440 5440 5439 5437 5437 5438 5438 5438 5437 5437 5437 5438 5438 5438 5438 5440 5441 5442 5443 5442 5443 5443 5443 5444
5426 5425 5425 5426 5427 5428 5430 5432 5432 5431 5431 5431 5431 5431 5432 5433 5434 5434 5435 5434 5434 5433 5431 5431 5431 5431 5431 5430 5429 5429 5429 5429 5429 5430 5430 5432 5432 5433 5433 5434 5434 5435 5435
5418 5417 5417 5417 5418 5419 5422 5423 5423 5422 5422 5422 5423 5424 5424 5425 5425 5425 5426 5426 5426 5426 5426 5425 5425 5424 5424 5424 5423 5422 5421 5420 5421 5420 5420 5424 5424 5424 5426 5426 5427 5426 5426
5409 5408 5408 5409 5409 5411 5413 5414 5414 5414 5413 5414 5414 5415 5416 5416 5416 5417 5417 5417 5417 5417 5418 5418 5418 5417 5418 5417 5416 5416 5414 5413 5413 5412 5412 5414 5415 5415 5417 5417 5418 5417 5417
5401 5400 5401 5401 5401 5402 5404 5406 5407 5405 5405 5405 5406 5407 5408 5409 5409 5410 5410 5410 5410 5409 5409 5410 5411 5411 5411 5411 5409 5408 5407 5407 5407 5405 5403 5404 5405 5405 5408 5408 5408 5407 5407
5394 5393 5393 5393 5393 5394 5396 5398 5399 5398 5397 5397 5397 5398 5400 5402 5402 5401 5401 5401 5401 5401 5402 5402 5403 5403 5403 5402 5402 5402 5402 5401 5398 5398 5397 5395 5396 5396 5398 5399 5398 5398 5398